Aérodrome :
LOGIN :

S'inscrire | Disclaimer

   EN    FR    IT 

 










Légende :    VFR   VFR Marginal   IFR   IFR Intensif   IFR Très Intensif
Visi : 
Plafond : 
>= 8 km
>= 3000ft
5 à 8 km
1000 à 3000 ft
1500m à 5 km
500 à 1000 ft
800 à 1500m
200 à 500 ft
< 800m
< 200 ft
Symboles :   Orages  Brouillard  Fortes neiges  Fortes précipitations  Vent > 20 kt
SIGMETs :   Divers  Orages  Givrage  Turbulence  Onde Orograph.  Cendres Volcan.







- Altitude de l'aérodrome : 181 ft


ESIB - Satenas AB

DERNIER METAR :
  • 211120Z AUTO 25015KT 9999 NCD 22/10 Q1009

METARs EXPIRÉS :
  • 211050Z AUTO 25016KT 9999 NCD 23/10 Q1009
  • 211020Z AUTO 24015KT 9999 NCD 23/13 Q1009
  • 210950Z AUTO 25018KT 9999 NCD 22/13 Q1009
  • 210920Z AUTO 23017KT 9999 NCD 22/14 Q1009
  • 210850Z AUTO 24012KT 9999 NCD 22/14 Q1009

Prévision TAF périmée.
Pas de NOTAMs connus pour ce terrain.



MET'MAP, la Météo Aéronautique d'un coup d'oeil ! - Copyright ORBIFLY Décembre 2007 - Disclaimer

ORBIFLY MET'MAP TEAM :

Programmation & Développement : Alexandra Zaïnal
Conception & Développement : Baudouin d'Aumeries
Co-Programmation & Développement : Marc-Olivier Méhu
Soutien technique & logistique : Manuel Goepfert

Contact : metmap@orbifly.com




SOURCES & CREDITS :

   NOAA